sat.trackr.live / text

‹ back to catalog

STARLINK-36318

NORAD 68048 · 2026-041J

PAYLOAD ACTIVE UNKNOWN

§ Identity

Operator
Country
US
Launch date
2026-03-02
Launch site
AFETR
Launch vehicle
Mass (kg)
RCS (m²)

Purposes: comms

External: N2YO · Heavens-Above · Gunter

§ Orbital elements

Epoch: 2026-05-25T00:19:53.927040Z

Period
93.85 min
Inclination
53.1595°
Eccentricity
0.0000985
Mean motion
15.34396645 rev/d
Perigee alt
462.0 km
Apogee alt
463.4 km
Semi-major
6,840.9 km
B*
5.7310e-4
RAAN
53.9538°
Arg perigee
70.0854°
Mean anomaly
290.0254°
Rev number
1,309

§ Raw data

STARLINK-363181 68048U 26041J   26145.01381860  .00019034  00000+0  57310-3 0  99992 68048  53.1595  53.9538 0000985  70.0854 290.0254 15.34396645 13096

JSON: /api/v1/satellites/68048 · /tle

For live sub-satellite position, see the globe view (requires WebGL).

§ Visibility from observer

Set your observer location to see the next 7 days of passes ≥ 10°. The values pass through the URL so the page stays shareable.

No JS? Fill the form by hand. The geolocation button needs JavaScript.